Location: Springfield
(37.2150°N, 93.2980°W)
Time: 21:43:45
(UTC-05:00)

Daily predictions for brighter satellites

Satellite Brightness Start Highest point End
(mag) Time Altitude Azimuth Time Altitude Azimuth Time Altitude Azimuth
USA 229 DEB 4.1 20:54:59 10° S 21:01:22 41° ESE 21:07:48 10° NE
USA 229 4.1 20:55:06 10° S 21:01:28 41° ESE 21:07:54 10° NE
FENGYUN 3A 3.8 20:56:55 10° SSE 21:02:20 86° WSW 21:07:47 10° NNW
Cosmos 1408 Rocket 3.7 20:59:14 10° S 21:03:39 83° W 21:08:02 10° N
Cosmos 332 Rocket 3.8 21:04:25 10° NNW 21:09:15 74° ENE 21:14:06 10° SSE
Meteor 2-1 Rocket 4.4 21:04:43 10° NNW 21:10:22 77° W 21:15:53 10° S
YAOGAN 11 4.1 21:07:20 10° SSE 21:11:36 78° ENE 21:15:58 10° N
Cosmos 1674 4.2 21:10:40 10° SE 21:13:23 19° E 21:16:08 10° NE
Cosmos 1437 Rocket 4.0 21:14:25 10° NNE 21:17:32 24° ENE 21:20:37 10° SE
Cosmos 968 Rocket 3.4 21:12:47 10° S 21:17:54 72° ESE 21:23:07 10° NNE
GPS 2-04 Rocket1 3.4 21:15:47 10° W 21:20:00 47° SSW 21:23:58 11° ESE
H-2A R/B 3.8 21:17:34 10° S 21:21:18 46° W 21:24:59 10° NNW
Cosmos 2026 Rocket 4.3 21:15:25 10° SSW 21:21:28 74° W 21:27:38 10° N
Cosmos 1151 Rocket 4.4 21:18:57 10° NNE 21:22:23 23° ENE 21:25:32 11° SE
Meteor 1-21 Rocket 4.2 21:21:35 10° S 21:27:02 62° E 21:32:29 10° NNE
Cosmos 2292 4.3 21:30:09 10° N 21:33:06 55° E 21:36:00 12° SSE
CZ-4 DEB 4.4 21:31:34 10° SSW 21:34:29 32° W 21:37:25 10° NNW
Envisat 3.1 21:30:43 10° SSE 21:35:42 59° ENE 21:40:42 10° N
H-2A R/B 2.2 21:31:26 10° SSE 21:35:56 77° ENE 21:40:28 10° N
DELTA 2 R/B (1) 3.8 21:34:17 10° W 21:39:49 71° N 21:45:22 10° E
Cosmos 1328 Rocket 3.6 21:38:18 10° N 21:42:47 86° W 21:47:12 10° S
Cosmos 2058 4.4 21:42:56 16° ESE 21:44:30 19° E 21:47:28 10° NE
S3M 4.0 21:38:55 10° N 21:45:03 84° W 21:51:10 10° S
ERS-1 Rocket 3.4 21:40:18 10° S 21:45:16 63° WSW 21:50:16 10° NNW
Cosmos 371 Rocket 3.5 21:40:59 10° NNW 21:45:47 72° WSW 21:50:24 11° S
Cosmos 2228 Rocket 3.7 21:43:29 10° NNW 21:47:53 57° W 21:52:17 10° S
YAOGAN 6 3.7 21:46:03 18° ESE 21:48:00 29° ENE 21:51:12 10° NNE
SPOT 5 2.8 21:45:55 15° SSE 21:49:31 61° ENE 21:54:10 10° N
ALOS 4.5 21:47:10 10° SSW 21:50:52 23° W 21:54:35 10° NW
Cosmos 1777 Rocket 4.0 21:46:34 10° SSW 21:51:51 88° ESE 21:57:08 10° NNE
Cosmos 2219 Rocket 4.5 21:51:51 10° NE 21:52:47 10° NE 21:53:43 10° ENE
Cosmos 1437 3.5 21:52:16 22° SE 21:53:45 35° E 21:56:46 10° NNE
Cosmos 405 3.4 21:50:21 10° N 21:53:52 46° E 21:55:47 23° SE
MetOp-A 4.2 21:54:51 17° SSE 21:58:56 63° ENE 22:04:13 10° N
ARGOS 4.0 21:55:49 18° SE 21:59:08 36° ENE 22:04:02 10° N
Cosmos 1500 Rocket 4.0 21:56:14 10° SSW 22:00:32 61° W 22:04:54 10° N
H-2A R/B 3.7 22:00:41 14° E 22:03:20 20° ENE 22:07:11 10° NNE
CZ-2C R/B 3.0 22:05:33 10° WSW 22:06:02 11° W 22:06:32 10° W
UNK 4.5 22:00:38 10° NNE 22:06:48 77° ESE 22:13:06 10° S
Cosmos 2219 3.5 22:01:54 10° S 22:07:21 47° ESE 22:12:50 10° NE
NOSS 3-1 (C) 3.8 22:04:09 10° S 22:09:27 39° ESE 22:15:11 10° NE
PSLV R/B 3.3 22:10:10 27° S 22:11:41 69° WSW 22:14:45 10° NNW
ATLAS CENTAUR R/B 3.4 22:10:28 10° WNW 22:13:56 23° WSW 22:17:04 10° SSW
SPOT 1/Viking Rocket 3.7 22:12:05 24° SE 22:15:04 60° ENE 22:20:09 10° N
Delta 2 Rocket 2.9 22:13:58 10° WSW 22:17:21 50° SSE 22:17:57 43° SE
Cosmos 2322 3.8 22:12:03 10° NNW 22:17:45 66° ENE 22:20:54 27° SE
Cosmos 883 Rocket 4.4 22:13:03 10° N 22:19:17 90° E 22:23:50 19° S
Cosmos 2237 Rocket 4.4 22:17:48 10° NNE 22:19:53 12° NE 22:21:57 10° ENE
Cosmos 1726 3.4 22:18:50 10° NNE 22:22:03 26° ENE 22:22:28 25° E
Cosmos 1680 Rocket 3.5 22:17:02 10° NNW 22:22:16 67° ENE 22:24:52 30° SE
Cosmos 2322 Rocket 3.4 22:18:30 10° NW 22:23:34 36° WSW 22:28:11 12° SSW
Cosmos 923 Rocket 4.0 22:20:20 10° NNW 22:25:33 85° WSW 22:28:21 28° SSE
USA 245 2.2 22:26:25 71° E 22:26:31 73° ENE 22:29:01 10° N
Cosmos 1908 4.2 22:26:44 10° NNW 22:30:26 43° W 22:32:46 20° SSW
Cosmos 304 Rocket 3.7 22:26:00 10° NNW 22:30:51 85° ENE 22:32:54 35° SSE
SL-16 R/B 3.6 22:27:55 10° NW 22:32:53 32° WSW 22:37:15 13° SSW
Cosmos 2150 Rocket 4.5 22:31:21 32° SSE 22:33:14 43° ESE 22:38:23 10° NNE
NOAA 11 4.2 22:31:18 31° SSE 22:33:58 72° ENE 22:39:23 10° N
Cosmos 2360 Rocket 2.1 22:29:00 10° NNW 22:34:41 87° WSW 22:37:27 32° SSE
Cosmos 1898 Rocket 3.9 22:33:17 34° SE 22:34:43 42° ESE 22:39:35 10° NNE
CZ-4B R/B 3.7 22:29:29 10° N 22:34:47 75° WNW 22:39:31 12° SSW
Landsat 7 4.3 22:35:02 35° ESE 22:36:31 47° ENE 22:41:04 10° N
Meteor 1-11 4.2 22:33:41 26° S 22:37:01 69° E 22:42:44 10° NNE
Cosmos 2315 Rocket 3.9 22:32:29 10° N 22:38:43 90° W 22:42:17 27° S
Cosmos 1633 Rocket 3.1 22:42:16 46° SE 22:43:08 56° E 22:47:25 10° NNE
Sich 1 3.1 22:42:31 46° SSE 22:43:33 61° E 22:47:55 10° NNE
Cosmos 2151 4.3 22:46:46 12° SW 22:50:13 36° WNW 22:54:06 10° N
Terra 2.2 22:51:23 40° ESE 22:52:23 47° ENE 22:56:57 10° N
Cosmos 1805 Rocket 4.1 22:54:12 27° SSW 22:56:26 57° W 23:00:49 10° N
Cosmos 2227 Rocket 3.1 22:57:45 30° E 22:57:45 30° E 23:02:24 10° NE
Cosmos 1626 4.0 22:59:43 20° ENE 22:59:43 20° ENE 23:01:35 10° NE
Meteor 1-4 Rocket 3.1 22:55:09 10° N 22:58:32 47° ENE 22:58:32 47° ENE
Cosmos 1300 2.7 22:55:56 10° NNW 22:59:46 70° W 23:00:11 62° SW
SeaSat 1 4.4 22:58:28 15° ENE 23:00:19 18° NE 23:03:32 10° N
USA 32 4.0 22:59:58 10° N 23:05:15 75° E 23:06:29 52° SSE
Cosmos 2333 Rocket 3.4 23:00:24 10° N 23:05:27 31° ENE 23:07:11 26° E
CZ-4C R/B 3.2 23:07:42 66° W 23:07:42 66° W 23:11:01 10° NNW
Spot 2 4.4 23:05:45 10° NNE 23:10:51 66° ESE 23:11:31 59° SE
Nadezhda 1 Rocket 4.2 23:05:02 10° N 23:11:00 54° E 23:12:26 44° SE
SL-16 R/B 4.4 23:08:18 10° NNE 23:11:09 14° NE 23:13:40 11° ENE
NOSS 3-1 (A) 3.3 23:07:22 20° SSW 23:11:33 89° SE 23:18:00 10° NNE
Cosmos 1707 Rocket 4.3 23:12:45 10° NNW 23:16:54 45° W 23:17:49 39° SW
COSMOS 2428 2.6 23:11:32 10° NNW 23:17:14 81° WSW 23:18:35 54° S
Cosmos 1666 Rocket 4.5 23:16:59 31° SW 23:18:30 43° W 23:22:43 10° N
Cosmos 1745 Rocket 3.9 23:17:11 44° S 23:19:22 86° E 23:25:36 10° N
Cosmos 1455 3.3 23:19:11 10° N 23:21:56 36° NE 23:21:56 36° NE
Cosmos 2297 Rocket 3.0 23:25:45 35° E 23:25:45 35° E 23:30:12 10° NE
DELTA 2 R/B (1) 3.4 23:20:50 10° WNW 23:26:20 66° SSW 23:26:42 64° S
Cosmos 1709 Rocket 4.4 23:27:28 41° ESE 23:28:02 42° E 23:33:45 10° NNE
Cosmos 1470 Rocket 3.5 23:31:55 80° NNW 23:31:55 80° NNW 23:36:05 10° N
Cosmos 1933 Rocket 3.5 23:33:20 84° NW 23:33:20 84° NW 23:37:44 10° N
ATLAS 2AS CENTAUR R/B 3.0 23:32:38 47° SSE 23:34:00 53° ESE 23:41:40 10° NE
Cosmos 2219 Rocket 2.1 23:32:08 10° NNW 23:37:44 74° ENE 23:38:24 65° ESE
Cosmos 1937 Rocket 3.7 23:36:51 47° SW 23:38:14 67° WNW 23:43:27 10° NNE
Cosmos 220 Rocket 4.2 23:38:58 64° W 23:39:06 64° WNW 23:43:29 10° NNE
COSMOS 2455 4.4 23:34:58 10° N 23:39:54 25° NE 23:42:07 20° E
H-2A R/B 2.6 23:41:19 43° SW 23:42:19 49° W 23:47:33 10° NNW
Cosmos 1703 4.4 23:42:49 37° W 23:42:49 37° W 23:46:29 10° N
IGS 5A 4.2 23:43:55 46° W 23:43:55 46° W 23:47:41 10° NNW
Cosmos 2181 Rocket 4.4 23:43:49 10° N 23:49:59 50° E 23:50:50 47° ESE
Cosmos 1271 Rocket 4.2 23:47:09 10° NNW 23:50:04 32° WNW 23:50:04 32° WNW
Cosmos 1386 Rocket 4.4 23:49:17 54° SSW 23:50:39 73° W 23:56:41 10° N
Cosmos 1980 3.7 23:45:44 10° NNW 23:51:23 69° ENE 23:51:50 65° E
Cosmos 990 Rocket 4.1 23:53:27 61° WSW 23:54:02 67° WNW 23:59:10 10° NNE
